Probability
0 0 0 0 0 0 0 0 0 0 0 0 0 0 0 0 0 0 0 0 0 0 0 0 0 0 0 0 0 0 0 0 0 0 0 0 0 0 0 0 0 0 0 0 0 0 0 0 0
0 0 0 0 0 0 0 0 0 0 0 0 0 0 0 0 0 0 0 0 0 0 0 0 0 0 0 0 0 0 0 0 0 0 0 0 0 0 0 0 0 0 0 0 0 0 0 0 0
0 0 0 0 0 0 0 0 0 0 0 0 0 0 0 0 0 0 0 0 0 0 0 0 0 0 0 0 0 0 0 0 0 0 0 0 0 0 0 0 0 0 0 0 0 0 0 0 0
0 0 0 0 0 0 0 0 0 0 0 0 0 0 0 0 0 0 0 0 0 0 0 0 1 0 0 0 0 0 0 0 0 0 0 0 0 0 0 0 0 0 0 0 0 0 0 0 0
0 0 0 0 0 0 0 0 0 0 0 0 0 0 0 0 0 0 0 0 0 0 0 1 3 2 0 0 0 0 0 0 0 0 0 0 0 0 0 0 0 0 0 0 0 0 0 0 0
0 0 0 0 0 0 0 0 0 0 0 0 0 0 0 0 0 0 0 0 0 0 0 2 3 3 1 1 0 0 0 0 0 0 0 0 0 0 0 0 0 0 0 0 0 0 0 0 0
0 0 0 0 0 0 0 0 0 0 0 0 0 0 0 0 0 0 0 0 0 0 0 2 2 2 1 1 0 0 0 0 0 0 0 0 0 0 0 0 0 0 0 0 0 0 0 0 0
0 0 0 0 0 0 0 0 0 0 1 0 0 0 0 0 1 1 2 1 1 0 1 4 5 4 2 1 0 1 1 0 0 0 0 0 0 0 0 0 0 0 0 0 0 0 0 0 0
0 0 0 0 0 0 0 0 0 1 2 1 0 0 0 1 3 6 11 12 9 5 5 10 13 11 6 2 1 2 2 1 1 0 0 0 0 0 0 0 0 0 0 0 0 0 0 0 0
0 0 0 0 0 0 0 0 1 3 4 3 1 2 4 6 9 15 25 34 30 20 16 18 22 22 16 8 4 4 4 3 2 1 0 0 0 0 0 0 0 0 0 0 0 2 4 4 4
0 0 0 0 0 0 0 0 1 3 4 5 4 6 11 14 15 21 35 52 55 43 30 24 26 28 24 13 8 8 7 5 3 1 0 0 0 0 0 0 0 2 2 2 3 6 10 12 12
0 0 0 0 0 0 0 0 1 1 5 9 9 9 14 19 21 25 38 58 71 64 45 32 26 25 22 15 11 11 9 7 4 2 1 1 1 1 0 0 1 4 6 6 5 8 12 14 15
0 0 0 0 0 0 0 0 1 2 10 18 15 11 16 22 27 32 42 60 74 72 57 42 32 23 17 15 17 17 13 10 7 4 3 6 6 4 2 0 0 3 6 6 5 6 8 9 9
0 0 0 0 0 0 0 0 1 6 20 28 21 14 17 24 32 40 48 58 65 64 56 47 40 31 23 24 30 32 27 23 19 13 13 17 16 11 5 2 0 1 3 4 3 2 3 3 4
0 0 0 0 0 0 0 0 1 9 24 31 24 20 22 28 36 43 46 48 49 46 43 42 41 38 36 38 47 51 48 42 34 26 25 29 25 16 8 2 0 0 1 2 2 1 1 1 1
0 0 0 0 0 0 0 0 1 9 21 27 28 30 32 38 42 41 37 34 33 31 30 31 34 38 41 45 52 58 57 51 42 33 32 33 27 15 6 2 0 0 0 1 1 1 0 0 0
0 0 0 0 0 0 1 1 3 9 20 31 38 46 52 54 52 42 32 26 23 23 22 22 24 30 36 41 45 48 47 42 35 30 28 26 19 10 4 1 0 0 0 0 0 0 0 0 0
0 0 0 0 0 1 2 4 7 14 29 43 52 61 67 63 52 40 28 21 17 16 15 13 14 18 25 31 33 31 29 26 21 17 17 14 10 5 2 1 0 0 0 0 0 0 0 0 0
0 0 0 0 0 1 2 5 12 23 38 53 60 64 64 55 42 29 18 12 9 9 9 7 7 10 14 17 18 17 15 13 9 7 7 7 5 3 1 0 0 0 0 0 0 0 0 0 0
0 0 0 0 0 0 1 4 12 22 35 48 54 52 46 36 25 16 8 4 5 6 5 3 3 5 7 9 9 10 9 8 6 4 3 3 3 2 1 0 0 0 0 0 0 0 0 0 0
0 0 0 0 0 0 0 2 6 13 22 32 36 33 25 17 10 6 3 3 4 4 2 1 1 2 4 5 7 8 9 8 7 5 4 3 3 2 1 0 0 0 0 0 0 0 0 0 0
0 0 0 0 0 0 0 0 2 6 12 17 18 14 9 5 3 2 1 2 3 2 1 0 0 1 2 3 5 7 8 8 8 6 5 4 3 2 0 0 0 0 0 0 0 0 0 0 0
0 0 0 0 0 0 0 0 1 3 5 7 6 4 2 1 1 1 0 1 1 1 0 0 0 0 1 1 2 3 5 5 5 5 4 4 3 1 0 0 0 0 0 0 0 0 0 0 0
0 0 0 0 0 0 0 0 0 1 2 2 1 1 0 0 0 0 0 0 0 0 0 0 0 0 0 0 0 1 1 1 1 2 2 1 1 1 1 1 1 1 1 0 0 0 0 0 0
0 0 0 0 0 0 0 0 0 0 0 0 0 0 0 0 0 0 0 0 0 0 0 0 0 0 0 0 0 0 0 0 0 0 0 1 1 1 2 2 1 2 2 1 1 1 0 0 0
0 0 0 0 0 0 0 0 0 0 0 0 0 0 0 0 0 0 0 0 0 0 0 0 0 0 0 0 0 0 0 0 0 0 0 1 1 1 1 1 1 2 2 2 2 1 0 0 0
0 0 0 0 0 0 0 0 0 0 0 0 0 0 0 0 0 0 0 0 0 0 0 0 0 0 0 0 0 0 0 0 0 0 0 1 1 0 0 0 0 1 1 2 1 1 0 0 0
0 0 0 0 0 0 0 0 0 0 0 0 0 0 0 0 0 0 0 0 0 0 0 0 0 0 0 0 0 0 0 0 0 0 0 0 0 0 0 0 0 0 0 0 0 0 0 0 0
0 0 0 0 0 0 0 0 0 0 0 0 0 0 0 0 0 0 0 0 0 0 0 0 0 0 0 0 0 0 0 0 0 0 0 0 0 0 0 0 0 0 0 0 0 0 0 0 0
0 0 0 0 0 0 0 0 0 0 0 0 0 0 0 0 0 0 0 0 0 0 0 0 0 0 0 0 0 0 0 0 0 0 0 0 0 0 0 0 0 0 0 0 0 0 0 0 0
Wind_Speed
5 6 4 2 1 2 4 4 2 5 6 6 9 9 8 5 4 4 5 17 19 18 14 17 19 19 19 18 18 17 17 17 16 16 16 15 15 14 14 14 14 13 13 12 12 11 10 10 9
3 5 3 1 3 3 5 4 6 5 5 8 8 7 7 6 7 10 8 16 21 18 13 15 20 19 19 19 18 17 17 17 16 16 15 15 15 14 14 13 13 12 12 11 11 11 10 9 8
3 4 3 2 2 1 5 6 5 4 1 3 5 5 5 7 9 7 9 18 17 14 12 16 22 21 20 19 18 18 17 17 16 16 15 14 14 14 13 13 12 12 11 11 10 10 9 9 8
2 2 3 3 1 3 2 6 7 6 5 5 7 5 4 6 8 11 17 18 17 13 11 15 22 21 20 19 18 18 17 17 16 15 15 14 14 13 13 12 12 11 11 10 10 9 9 8 8
3 3 3 1 4 4 3 2 5 4 4 4 6 6 4 4 16 21 19 17 16 12 10 14 21 21 20 19 18 18 17 16 16 15 14 14 13 12 12 11 11 11 10 10 10 10 9 9 9
3 4 3 2 5 4 4 4 1 5 4 3 5 5 3 10 18 19 18 16 15 15 12 12 20 20 20 19 18 17 17 16 15 15 14 13 13 12 12 11 11 11 11 10 10 10 10 10 10
3 3 2 3 4 4 5 4 5 3 1 1 3 5 4 10 14 17 16 15 14 14 13 10 12 15 19 19 18 17 17 16 15 15 14 14 13 13 12 12 12 12 12 12 12 12 12 12 11
5 3 1 2 3 6 4 4 5 7 3 1 2 7 7 10 13 14 14 14 13 12 12 11 9 9 9 11 17 17 17 17 16 16 15 15 14 14 13 11 12 13 14 14 14 14 14 13 13
3 3 3 5 4 6 4 3 3 7 6 2 2 7 11 15 16 14 12 11 12 13 11 11 10 9 8 8 13 15 17 17 16 14 17 14 7 7 8 12 14 15 16 16 16 15 15 14 13
4 3 8 8 6 5 6 5 8 6 6 4 4 6 15 17 19 18 17 17 16 15 13 11 11 11 9 10 8 6 8 8 9 7 9 7 5 6 9 10 16 18 18 17 17 17 15 12 6
3 6 8 9 9 5 4 4 7 12 7 11 15 16 18 18 17 17 17 18 17 15 14 13 12 11 11 8 7 5 5 5 7 8 8 6 5 5 6 4 7 10 13 9 10 10 7 7 6
4 9 8 8 5 2 4 3 4 10 14 17 19 21 19 16 15 15 14 13 12 12 12 12 12 11 11 8 7 7 6 6 7 8 8 6 5 5 5 4 4 4 4 5 5 4 6 7 8
4 6 7 7 7 4 4 5 4 7 8 14 13 13 15 13 12 10 9 9 10 9 6 7 6 9 10 8 7 8 7 7 7 6 7 8 6 6 5 3 3 3 3 3 4 4 5 6 7
6 8 11 9 8 6 5 6 4 4 8 13 12 12 11 8 5 4 5 7 9 8 6 5 3 1 5 6 7 6 6 6 6 6 8 10 7 5 4 4 3 3 3 3 4 4 4 4 4
5 8 11 9 7 7 5 8 8 5 10 12 12 7 3 5 8 9 10 11 11 9 8 6 3 1 2 4 5 4 5 5 5 5 7 8 7 6 5 3 3 3 3 3 2 3 2 3 3
6 5 7 12 7 9 2 9 12 3 11 9 7 5 6 8 11 11 12 12 11 11 9 8 4 2 3 3 2 2 3 4 4 4 5 7 7 7 5 3 3 2 1 1 1 1 1 2 2
4 4 9 13 7 5 4 6 5 3 10 8 7 7 9 11 13 12 12 11 9 10 9 9 7 6 4 4 3 3 2 2 2 3 4 6 7 7 5 3 2 2 1 1 1 0 1 1 2
6 6 6 6 7 5 4 3 7 9 12 11 10 10 12 11 9 8 9 9 8 7 7 6 3 2 3 3 3 3 2 1 1 2 4 6 6 6 5 3 3 3 2 1 0 1 1 1 2
6 3 4 4 5 8 10 13 15 15 17 15 12 11 10 9 8 7 6 6 5 5 6 5 1 1 0 1 2 2 2 2 2 2 4 6 6 7 6 4 3 3 2 2 1 1 1 1 1
3 3 4 4 5 7 11 16 16 18 19 16 15 13 10 8 7 6 5 5 5 4 4 3 0 1 1 2 2 2 2 3 2 2 3 5 6 7 6 6 4 4 3 1 0 1 1 1 0
4 2 3 3 5 7 6 8 12 14 16 16 15 12 10 8 6 5 6 6 7 8 7 4 4 4 3 2 2 1 1 1 1 1 2 3 5 6 6 7 5 5 4 3 2 2 3 2 1
4 4 2 3 4 3 3 2 4 7 13 14 13 10 8 6 6 6 7 9 9 8 7 7 6 5 5 4 2 1 1 1 2 2 2 2 3 4 6 7 6 6 4 4 4 3 3 3 2
3 3 2 2 1 1 3 4 2 3 8 8 8 8 5 3 4 5 6 7 6 6 6 6 7 7 6 5 4 3 3 2 2 2 2 2 2 4 5 5 6 6 5 5 5 4 4 3 3
2 5 7 6 6 3 3 3 2 2 3 4 5 5 3 1 2 3 4 5 5 5 5 5 6 6 6 6 6 6 5 5 5 4 4 3 3 3 3 4 5 6 5 6 6 5 5 4 4
5 7 6 7 6 3 1 5 1 4 7 7 6 5 5 4 3 3 3 3 2 2 2 3 3 3 4 4 5 5 5 5 5 5 4 4 3 3 4 3 4 5 6 6 5 5 5 5 5
1 7 6 2 4 3 3 2 2 4 4 4 4 5 5 4 3 3 3 3 3 3 2 2 1 0 1 2 2 3 3 2 3 4 4 4 3 4 5 5 4 4 5 6 5 4 5 5 5
1 1 5 6 0 1 0 2 1 3 4 4 4 4 4 5 5 5 5 5 5 5 5 5 4 3 2 2 2 2 2 2 3 4 4 3 4 4 6 6 6 5 4 5 5 4 5 5 6
3 2 6 5 1 2 2 3 5 8 8 6 5 3 3 3 4 5 5 6 6 7 6 5 5 5 5 5 5 4 4 4 4 3 4 4 4 4 5 6 6 6 6 5 5 4 5 6 6
5 5 4 3 3 3 2 4 3 7 6 4 4 3 3 3 4 5 5 6 6 5 5 5 6 6 6 7 7 7 7 6 6 5 6 5 5 5 5 5 5 6 6 5 5 6 6 7 7
3 1 3 2 2 2 1 4 3 2 2 2 0 1 2 4 5 5 6 5 4 4 5 6 7 7 8 8 8 8 8 7 7 7 8 7 6 6 6 5 5 6 6 5 5 6 6 6 7
Wind_Direction
169 162 151 154 91 43 296 298 9 23 50 54 74 88 90 76 149 167 142 146 144 150 156 155 156 156 154 151 150 149 148 147 146 143 141 139 137 137 136 137 138 138 137 136 135 136 136 136 136
173 166 153 120 69 19 307 328 4 24 122 117 80 76 80 69 84 111 125 148 147 150 153 154 155 156 156 155 155 155 154 153 151 149 148 147 146 145 145 145 145 146 146 146 147 148 149 150 151
196 181 138 77 72 189 300 324 332 347 30 95 86 58 77 110 117 125 144 145 142 148 151 158 157 158 159 159 160 160 158 157 156 155 155 154 154 153 153 153 153 154 155 157 158 159 161 164 167
153 96 58 67 238 230 256 306 331 352 9 44 96 70 65 121 128 133 139 145 145 149 153 160 159 161 162 163 164 164 163 162 161 161 161 162 161 161 161 162 163 164 166 168 170 172 174 179 184
92 84 59 5 259 242 228 314 341 340 349 44 86 87 50 55 120 133 144 151 150 151 156 163 162 164 166 167 168 168 167 167 167 167 168 169 169 170 171 173 175 176 179 182 185 188 190 194 201
61 74 79 256 262 251 221 192 123 4 14 58 84 95 73 127 132 145 151 155 155 155 158 164 167 168 169 171 172 172 173 173 173 174 175 177 179 181 183 186 189 192 194 197 201 203 205 208 213
135 117 200 229 261 262 235 186 150 128 36 22 104 94 110 150 150 151 154 154 156 158 162 167 169 172 174 175 176 177 178 179 180 181 183 185 188 192 196 198 202 206 209 211 213 215 217 219 221
152 110 276 251 260 257 228 176 151 128 127 80 110 137 158 170 155 152 153 155 157 162 168 170 168 169 172 177 182 183 184 186 188 189 191 194 198 201 206 209 215 217 219 221 222 224 225 227 228
129 86 240 236 235 260 234 184 143 116 124 139 179 168 162 155 154 156 157 159 165 170 175 173 171 170 169 176 189 189 190 193 194 196 199 201 206 209 214 221 224 227 228 228 229 230 232 233 236
117 175 234 229 240 248 230 194 154 139 136 162 164 147 149 157 164 169 170 172 176 177 179 179 177 175 174 185 188 191 195 197 198 199 203 201 200 211 219 229 233 234 234 235 233 233 234 237 237
193 218 253 266 259 238 229 225 165 146 180 194 177 170 167 173 174 176 178 179 179 178 180 181 182 180 181 191 185 192 200 199 205 206 207 204 203 216 228 228 242 239 236 235 237 235 228 228 228
268 272 272 275 289 286 247 229 176 178 203 192 182 173 176 180 176 179 177 174 167 171 183 182 183 183 190 195 191 193 200 202 207 211 207 201 206 216 221 219 227 221 220 218 225 224 225 230 232
277 282 296 296 318 313 303 281 240 219 199 175 183 180 182 183 183 175 159 147 146 151 161 169 186 192 194 199 199 197 203 207 208 205 205 202 204 211 211 211 215 214 207 211 222 228 231 234 236
283 303 302 300 308 306 311 304 306 251 169 167 180 192 191 185 159 112 97 99 107 109 95 94 86 231 229 209 201 198 198 199 196 199 201 198 198 198 199 207 213 217 208 209 212 220 226 230 231
308 326 320 302 295 285 338 321 282 231 162 171 187 186 131 89 77 76 75 75 78 76 69 63 68 332 297 252 209 201 188 180 186 193 190 185 182 184 187 193 207 223 215 211 216 233 232 240 242
341 344 306 287 278 274 230 265 279 193 155 166 165 132 99 80 75 77 76 76 78 72 56 35 19 358 319 300 254 224 194 172 184 184 183 174 175 177 175 180 199 211 191 190 221 252 279 279 277
344 288 279 291 285 262 184 238 293 122 133 125 114 106 94 78 69 69 71 75 77 76 58 37 14 3 333 316 305 272 234 194 182 172 179 173 172 170 164 172 188 173 146 165 228 145 195 258 290
261 268 285 301 327 24 75 77 37 56 85 86 79 83 83 77 69 71 67 69 70 81 88 63 22 339 350 323 311 303 316 308 235 186 185 176 169 163 158 161 163 144 130 124 147 218 218 221 256
248 282 317 320 345 40 53 60 52 54 60 61 57 61 68 65 55 55 60 72 79 73 82 82 65 291 360 324 308 303 294 280 263 225 195 180 169 162 160 158 156 141 146 176 200 212 275 285 285
303 354 342 329 358 42 71 73 66 59 59 57 52 46 44 48 47 45 47 52 55 67 83 102 62 293 238 245 252 237 226 256 250 240 205 187 173 168 165 160 161 160 158 163 162 166 183 271 283
336 347 329 331 11 28 81 67 65 64 65 64 60 52 45 49 52 52 51 52 56 44 33 30 16 360 340 287 270 300 330 311 338 273 238 214 186 176 168 171 169 174 172 185 197 191 183 209 266
310 298 333 349 25 336 58 106 72 68 61 59 60 52 41 34 42 50 53 53 52 46 37 32 32 29 4 347 343 304 244 250 250 252 249 241 219 199 185 181 181 185 184 189 201 191 185 177 220
269 303 10 360 37 3 8 108 81 69 61 62 67 69 53 33 52 62 65 65 59 49 41 34 32 29 21 25 20 18 4 325 320 335 330 304 264 233 214 200 192 195 194 196 198 199 205 195 197
303 25 22 35 55 15 324 104 27 40 109 111 106 106 114 126 90 80 75 72 64 54 48 42 37 26 16 22 22 23 11 357 0 357 342 326 314 294 267 235 215 206 201 203 203 203 209 212 214
48 63 23 0 5 299 352 91 157 152 153 159 159 164 176 186 163 123 99 92 99 89 74 60 49 25 13 21 18 15 10 5 2 348 334 330 327 322 311 282 241 221 212 210 204 203 214 215 220
318 120 141 209 244 278 9 103 190 173 177 184 178 177 181 185 179 164 169 176 185 183 174 163 140 334 348 8 355 353 353 350 337 332 330 331 323 312 314 315 284 252 229 218 208 210 219 220 224
31 291 172 148 342 68 202 126 188 198 207 205 195 186 182 179 182 189 196 200 205 207 207 199 195 218 253 267 280 289 306 312 310 313 319 316 316 319 334 330 321 304 274 247 226 223 226 224 227
112 118 63 70 61 322 282 208 201 198 220 220 209 194 194 187 193 203 213 220 221 216 212 202 196 207 224 234 242 243 244 248 257 275 288 293 298 309 320 325 324 321 310 286 256 245 239 232 235
13 24 69 91 145 143 303 287 239 200 208 201 205 206 214 231 242 251 252 248 243 229 213 206 211 217 227 233 237 240 241 239 239 247 256 262 270 283 294 300 306 307 304 301 284 263 250 240 241
51 18 111 113 333 83 114 287 291 185 180 152 88 332 306 299 294 292 295 298 295 265 244 234 232 231 233 234 236 240 243 241 240 243 246 247 254 262 267 274 283 289 294 298 296 289 278 256 246